AFL513 UUEE-UWKD

Flight info

Callsign AFL513
Flight time 1h 11m
Altitude 37000
Route KOGOM3J KOGOM L94 EKPIR M864 INKEB L94 UNORO T788 KOROM KOROM1T
Aircraft B738/M-SDE2E3FGHIRWXY/LB1

Departure

Time 2026-05-04 13:37
Airport Sheremetyevo International Airport (UUEE)

Arrival

Time 2026-05-04 14:48
Airport Kazan International Airport (UWKD)
Time Latitude Longitude Altitude Speed Heading
2026-05-04 12:49 55.97882 37.41925 638 ft 0 kts 255°
2026-05-04 13:27 55.97887 37.41960 638 ft 4 kts 253°
2026-05-04 13:28 55.97898 37.42002 642 ft 4 kts 227°
2026-05-04 13:28 55.97918 37.42026 639 ft 4 kts 180°
2026-05-04 13:28 55.97927 37.42025 639 ft 1 kts 165°
2026-05-04 13:31 55.97924 37.42026 639 ft 2 kts 165°
2026-05-04 13:31 55.97903 37.42037 641 ft 5 kts 165°
2026-05-04 13:31 55.97851 37.42061 638 ft 10 kts 165°
2026-05-04 13:32 55.97774 37.42100 640 ft 13 kts 164°
2026-05-04 13:32 55.97701 37.42159 638 ft 11 kts 128°
2026-05-04 13:32 55.97703 37.42304 638 ft 13 kts 75°
2026-05-04 13:32 55.97728 37.42473 640 ft 15 kts 75°
2026-05-04 13:33 55.97758 37.42667 639 ft 17 kts 74°
2026-05-04 13:33 55.97732 37.42794 644 ft 8 kts 155°
2026-05-04 13:33 55.97729 37.42796 645 ft 0 kts 158°
2026-05-04 13:34 55.97716 37.42803 638 ft 3 kts 164°
2026-05-04 13:34 55.97686 37.42817 637 ft 6 kts 165°
2026-05-04 13:34 55.97637 37.42828 641 ft 8 kts 189°
2026-05-04 13:35 55.97592 37.42760 641 ft 9 kts 249°
2026-05-04 13:35 55.97590 37.42743 640 ft 0 kts 255°
2026-05-04 13:36 55.97537 37.42394 640 ft 65 kts 255°
2026-05-04 13:37 55.97361 37.41219 640 ft 128 kts 255°
2026-05-04 13:37 55.97088 37.39415 848 ft 163 kts 254°
2026-05-04 13:37 55.96747 37.37505 1716 ft 160 kts 246°
2026-05-04 13:37 55.96384 37.36361 2309 ft 160 kts 243°
2026-05-04 13:38 55.95623 37.34050 3189 ft 163 kts 248°
2026-05-04 13:38 55.95272 37.32139 3794 ft 163 kts 255°
2026-05-04 13:38 55.94958 37.30197 4418 ft 162 kts 255°
2026-05-04 13:38 55.94619 37.28149 4724 ft 185 kts 255°
2026-05-04 13:39 55.94242 37.25823 4912 ft 205 kts 255°
2026-05-04 13:39 55.93839 37.23276 5163 ft 220 kts 255°
2026-05-04 13:39 55.93413 37.20608 5601 ft 228 kts 255°
2026-05-04 13:39 55.92975 37.17921 6395 ft 223 kts 255°
2026-05-04 13:40 55.92527 37.15258 6812 ft 224 kts 255°
2026-05-04 13:40 55.92068 37.12585 6954 ft 226 kts 255°
2026-05-04 13:40 55.91603 37.09896 7080 ft 229 kts 255°
2026-05-04 13:40 55.90872 37.07362 7694 ft 236 kts 230°
2026-05-04 13:41 55.89491 37.05801 8382 ft 248 kts 201°
2026-05-04 13:41 55.87682 37.05555 8721 ft 277 kts 173°
2026-05-04 13:41 55.85850 37.06972 9302 ft 293 kts 144°
2026-05-04 13:42 55.83854 37.13264 10709 ft 302 kts 100°
2026-05-04 13:42 55.83504 37.16915 11422 ft 305 kts 98°
2026-05-04 13:42 55.83163 37.20666 12156 ft 309 kts 99°
2026-05-04 13:42 55.82858 37.24508 12902 ft 312 kts 90°
2026-05-04 13:43 55.83281 37.28270 13553 ft 315 kts 63°
2026-05-04 13:43 55.84485 37.31490 14057 ft 320 kts 47°
2026-05-04 13:43 55.85923 37.34555 14723 ft 324 kts 46°
2026-05-04 13:43 55.87387 37.37642 15430 ft 328 kts 47°
2026-05-04 13:44 55.88855 37.40773 16144 ft 331 kts 47°
2026-05-04 13:44 55.90332 37.43962 16863 ft 335 kts 47°
2026-05-04 13:44 55.91817 37.47188 17570 ft 339 kts 48°
2026-05-04 13:44 55.93168 37.50658 18208 ft 347 kts 65°
2026-05-04 13:45 55.93710 37.54874 18798 ft 353 kts 89°
2026-05-04 13:45 55.93427 37.59219 19447 ft 354 kts 101°
2026-05-04 13:45 55.92918 37.63531 20056 ft 358 kts 102°
2026-05-04 13:45 55.92393 37.67895 20636 ft 361 kts 102°
2026-05-04 13:46 55.91884 37.72294 21306 ft 362 kts 102°
2026-05-04 13:46 55.91431 37.75162 21683 ft 365 kts 115°
2026-05-04 13:46 55.90240 37.79149 22288 ft 366 kts 121°
2026-05-04 13:46 55.88964 37.83100 22886 ft 369 kts 121°
2026-05-04 13:47 55.87682 37.87079 23450 ft 373 kts 121°
2026-05-04 13:47 55.86396 37.91112 23945 ft 375 kts 120°
2026-05-04 13:47 55.85112 37.95171 24443 ft 378 kts 120°
2026-05-04 13:47 55.83823 37.99269 24928 ft 380 kts 120°
2026-05-04 13:48 55.82530 38.03387 25405 ft 383 kts 119°
2026-05-04 13:48 55.81224 38.07542 25876 ft 386 kts 119°
2026-05-04 13:48 55.80010 38.11812 26327 ft 389 kts 107°
2026-05-04 13:48 55.79562 38.16561 26553 ft 397 kts 88°
2026-05-04 13:49 55.79681 38.21527 26667 ft 408 kts 84°
2026-05-04 13:49 55.79860 38.26680 26859 ft 417 kts 85°
2026-05-04 13:49 55.80009 38.31785 27244 ft 421 kts 85°
2026-05-04 13:49 55.80130 38.37001 27697 ft 423 kts 86°
2026-05-04 13:50 55.80347 38.42211 28151 ft 422 kts 76°
2026-05-04 13:50 55.81148 38.47210 28590 ft 421 kts 68°
2026-05-04 13:50 55.82114 38.52148 28994 ft 423 kts 68°
2026-05-04 13:50 55.83084 38.57111 29378 ft 426 kts 68°
2026-05-04 13:51 55.84021 38.62132 29751 ft 429 kts 69°
2026-05-04 13:51 55.84932 38.67195 30099 ft 431 kts 69°
2026-05-04 13:51 55.85848 38.72285 30425 ft 433 kts 67°
2026-05-04 13:51 55.87006 38.77267 30487 ft 439 kts 62°
2026-05-04 13:52 55.89779 38.87156 30627 ft 453 kts 60°
2026-05-04 13:52 55.91193 38.92221 30709 ft 460 kts 60°
2026-05-04 13:52 55.92589 38.97388 30853 ft 465 kts 61°
2026-05-04 13:53 55.93972 39.02616 31130 ft 466 kts 61°
2026-05-04 13:53 55.95344 39.07838 31547 ft 463 kts 61°
2026-05-04 13:53 55.96520 39.13167 31954 ft 465 kts 73°
2026-05-04 13:54 55.97182 39.24664 32821 ft 463 kts 82°
2026-05-04 13:54 55.97426 39.30394 33194 ft 462 kts 81°
2026-05-04 13:54 55.97974 39.41820 33764 ft 462 kts 80°
2026-05-04 13:55 55.98269 39.47535 34059 ft 461 kts 80°
2026-05-04 13:55 55.98861 39.58938 34512 ft 462 kts 81°
2026-05-04 13:55 55.99175 39.64655 34693 ft 463 kts 77°
2026-05-04 13:56 56.00074 39.70093 34840 ft 454 kts 58°
2026-05-04 13:56 56.01519 39.75083 35113 ft 453 kts 62°
2026-05-04 13:56 56.03107 39.86078 35466 ft 466 kts 83°
2026-05-04 13:57 56.03217 39.91878 35704 ft 467 kts 85°
2026-05-04 13:57 56.03258 39.97682 35934 ft 467 kts 86°
2026-05-04 13:58 56.03377 40.15106 36584 ft 467 kts 86°
2026-05-04 13:58 56.03508 40.26725 36860 ft 470 kts 86°
2026-05-04 13:58 56.03577 40.32584 36842 ft 471 kts 86°
2026-05-04 13:59 56.03704 40.44267 36853 ft 469 kts 86°
2026-05-04 14:00 56.03867 40.61698 36853 ft 466 kts 86°
2026-05-04 14:00 56.04009 40.79034 36849 ft 464 kts 86°
2026-05-04 14:01 56.04091 40.90587 36846 ft 464 kts 86°
2026-05-04 14:02 56.04190 41.07928 36846 ft 465 kts 86°
2026-05-04 14:02 56.04227 41.19506 36847 ft 466 kts 87°
2026-05-04 14:03 56.04258 41.31141 36842 ft 468 kts 87°
2026-05-04 14:03 56.04290 41.42721 36847 ft 470 kts 87°
2026-05-04 14:04 56.04317 41.60351 36842 ft 471 kts 87°
2026-05-04 14:04 56.04328 41.72066 36842 ft 471 kts 87°
2026-05-04 14:05 56.04312 41.89570 36856 ft 471 kts 87°
2026-05-04 14:06 56.04285 42.01271 36836 ft 470 kts 87°
2026-05-04 14:06 56.04247 42.12954 36843 ft 470 kts 87°
2026-05-04 14:07 56.04197 42.24641 36842 ft 469 kts 87°
2026-05-04 14:07 56.04137 42.36304 36842 ft 469 kts 88°
2026-05-04 14:08 56.04068 42.47947 36844 ft 468 kts 88°
2026-05-04 14:08 56.03974 42.59591 36844 ft 468 kts 88°
2026-05-04 14:09 56.03748 42.77050 36849 ft 468 kts 88°
2026-05-04 14:10 56.03500 42.94517 36868 ft 469 kts 88°
2026-05-04 14:10 56.03325 43.06179 36856 ft 470 kts 88°
2026-05-04 14:11 56.03137 43.17858 36855 ft 470 kts 89°
2026-05-04 14:11 56.02907 43.35404 36850 ft 470 kts 83°
2026-05-04 14:12 56.03624 43.46960 36853 ft 467 kts 79°
2026-05-04 14:13 56.04923 43.64258 36853 ft 468 kts 79°
2026-05-04 14:13 56.05713 43.75812 36864 ft 469 kts 79°
2026-05-04 14:14 56.06470 43.87409 36856 ft 469 kts 80°
2026-05-04 14:14 56.07582 44.04814 36857 ft 469 kts 80°
2026-05-04 14:15 56.09032 44.28035 36854 ft 469 kts 80°
2026-05-04 14:16 56.10090 44.45452 36863 ft 469 kts 80°
2026-05-04 14:17 56.11127 44.62905 36854 ft 470 kts 81°
2026-05-04 14:18 56.11077 44.80459 36849 ft 474 kts 90°
2026-05-04 14:19 56.10489 45.04033 36858 ft 474 kts 89°
2026-05-04 14:19 56.10214 45.15830 36855 ft 474 kts 90°
2026-05-04 14:20 56.09933 45.27624 36861 ft 474 kts 90°
2026-05-04 14:20 56.09648 45.39422 36857 ft 474 kts 90°
2026-05-04 14:21 56.09197 45.57120 36864 ft 474 kts 90°
2026-05-04 14:21 56.08881 45.68913 36867 ft 474 kts 90°
2026-05-04 14:22 56.08553 45.80703 36865 ft 474 kts 90°
2026-05-04 14:22 56.08213 45.92500 36868 ft 474 kts 90°
2026-05-04 14:23 56.07683 46.10197 36874 ft 475 kts 90°
2026-05-04 14:23 56.07501 46.16118 36601 ft 480 kts 90°
2026-05-04 14:24 56.07313 46.22095 36077 ft 480 kts 90°
2026-05-04 14:24 56.07122 46.28050 35473 ft 479 kts 89°
2026-05-04 14:24 56.06929 46.34006 34829 ft 479 kts 89°
2026-05-04 14:24 56.06735 46.39944 34178 ft 479 kts 89°
2026-05-04 14:25 56.06537 46.45906 33421 ft 480 kts 89°
2026-05-04 14:25 56.05232 46.57707 32029 ft 489 kts 106°
2026-05-04 14:25 56.04007 46.63344 31541 ft 485 kts 107°
2026-05-04 14:26 56.02762 46.68921 31027 ft 480 kts 106°
2026-05-04 14:26 56.01532 46.74448 30554 ft 476 kts 105°
2026-05-04 14:26 56.00328 46.79928 30061 ft 472 kts 105°
2026-05-04 14:26 55.99145 46.85373 29517 ft 468 kts 104°
2026-05-04 14:27 55.97978 46.90773 28976 ft 464 kts 105°
2026-05-04 14:27 55.96824 46.96116 28500 ft 458 kts 105°
2026-05-04 14:27 55.95680 47.01405 27992 ft 454 kts 105°
2026-05-04 14:27 55.94544 47.06638 27510 ft 450 kts 106°
2026-05-04 14:28 55.93416 47.11818 27012 ft 446 kts 106°
2026-05-04 14:28 55.92293 47.16954 26558 ft 443 kts 107°
2026-05-04 14:28 55.91176 47.22047 26084 ft 440 kts 107°
2026-05-04 14:28 55.90065 47.27109 25596 ft 437 kts 108°
2026-05-04 14:29 55.87860 47.37115 24664 ft 431 kts 108°
2026-05-04 14:29 55.86043 47.45324 23894 ft 427 kts 109°
2026-05-04 14:30 55.84952 47.50234 23402 ft 426 kts 109°
2026-05-04 14:30 55.83865 47.55113 22883 ft 423 kts 109°
2026-05-04 14:30 55.81708 47.64763 21904 ft 416 kts 109°
2026-05-04 14:31 55.80643 47.69512 21452 ft 412 kts 109°
2026-05-04 14:31 55.78531 47.78905 20542 ft 406 kts 109°
2026-05-04 14:32 55.76448 47.88129 19657 ft 400 kts 109°
2026-05-04 14:32 55.75414 47.92694 19212 ft 397 kts 109°
2026-05-04 14:32 55.74385 47.97227 18769 ft 395 kts 109°
2026-05-04 14:32 55.73360 48.01730 18335 ft 392 kts 109°
2026-05-04 14:33 55.72341 48.06198 17854 ft 390 kts 109°
2026-05-04 14:33 55.71325 48.10648 17377 ft 387 kts 110°
2026-05-04 14:33 55.70330 48.14991 16934 ft 384 kts 110°
2026-05-04 14:33 55.69316 48.19410 16488 ft 381 kts 110°
2026-05-04 14:34 55.68319 48.23745 16051 ft 378 kts 110°
2026-05-04 14:34 55.67331 48.28033 15625 ft 375 kts 110°
2026-05-04 14:34 55.66350 48.32281 15198 ft 372 kts 110°
2026-05-04 14:34 55.65387 48.36444 14782 ft 369 kts 110°
2026-05-04 14:35 55.64417 48.40637 14369 ft 366 kts 110°
2026-05-04 14:35 55.63453 48.44786 13946 ft 364 kts 110°
2026-05-04 14:35 55.62487 48.48919 13523 ft 362 kts 111°
2026-05-04 14:35 55.61347 48.52893 13014 ft 362 kts 118°
2026-05-04 14:36 55.60064 48.56710 12575 ft 360 kts 120°
2026-05-04 14:36 55.58760 48.60453 12153 ft 356 kts 121°
2026-05-04 14:36 55.57468 48.64172 11736 ft 353 kts 120°
2026-05-04 14:36 55.56202 48.67860 11338 ft 350 kts 120°
2026-05-04 14:37 55.54954 48.71534 10934 ft 347 kts 120°
2026-05-04 14:37 55.53723 48.75180 10562 ft 344 kts 120°
2026-05-04 14:37 55.52520 48.78748 10428 ft 333 kts 120°
2026-05-04 14:37 55.51354 48.82214 10280 ft 323 kts 120°
2026-05-04 14:38 55.50222 48.85575 10156 ft 314 kts 120°
2026-05-04 14:38 55.49121 48.88841 10018 ft 306 kts 120°
2026-05-04 14:38 55.48048 48.92021 9898 ft 297 kts 120°
2026-05-04 14:38 55.46998 48.95131 9626 ft 295 kts 120°
2026-05-04 14:39 55.45949 48.98231 9339 ft 293 kts 120°
2026-05-04 14:39 55.44910 49.01299 9061 ft 291 kts 120°
2026-05-04 14:39 55.43876 49.04349 8756 ft 290 kts 120°
2026-05-04 14:40 55.41802 49.10450 8060 ft 291 kts 121°
2026-05-04 14:40 55.40760 49.13507 7722 ft 292 kts 121°
2026-05-04 14:40 55.39715 49.16572 7362 ft 293 kts 121°
2026-05-04 14:40 55.38666 49.19649 7006 ft 293 kts 121°
2026-05-04 14:41 55.37614 49.22726 6658 ft 294 kts 121°
2026-05-04 14:41 55.36557 49.25813 6303 ft 295 kts 121°
2026-05-04 14:41 55.35495 49.32575 5549 ft 293 kts 77°
2026-05-04 14:42 55.37639 49.38290 4865 ft 281 kts 34°
2026-05-04 14:42 55.39216 49.40310 4520 ft 280 kts 33°
2026-05-04 14:42 55.40798 49.42313 4256 ft 277 kts 33°
2026-05-04 14:43 55.42342 49.44280 3974 ft 275 kts 32°
2026-05-04 14:43 55.43908 49.46172 3716 ft 271 kts 31°
2026-05-04 14:43 55.45465 49.48024 3449 ft 269 kts 31°
2026-05-04 14:43 55.47007 49.49867 3190 ft 266 kts 31°
2026-05-04 14:44 55.48548 49.51645 2928 ft 263 kts 24°
2026-05-04 14:44 55.50283 49.52223 2755 ft 251 kts 348°
2026-05-04 14:44 55.51765 49.50915 2700 ft 235 kts 311°
2026-05-04 14:44 55.52652 49.48598 2642 ft 224 kts 300°
2026-05-04 14:45 55.53494 49.46355 2482 ft 214 kts 303°
2026-05-04 14:45 55.54307 49.44271 2330 ft 200 kts 303°
2026-05-04 14:45 55.55066 49.42304 2097 ft 188 kts 302°
2026-05-04 14:45 55.55776 49.40450 1845 ft 176 kts 302°
2026-05-04 14:46 55.56430 49.38749 1636 ft 159 kts 302°
2026-05-04 14:46 55.57024 49.37213 1416 ft 145 kts 302°
2026-05-04 14:46 55.57581 49.35765 1232 ft 142 kts 302°
2026-05-04 14:46 55.58135 49.34323 1061 ft 144 kts 302°
2026-05-04 14:47 55.58695 49.32869 853 ft 144 kts 303°
2026-05-04 14:47 55.59245 49.31422 670 ft 141 kts 303°
2026-05-04 14:47 55.59805 49.29967 478 ft 145 kts 304°
2026-05-04 14:47 55.60355 49.28563 417 ft 128 kts 305°
2026-05-04 14:48 55.60788 49.27446 411 ft 93 kts 304°
2026-05-04 14:48 55.61084 49.26678 411 ft 58 kts 304°
2026-05-04 14:48 55.61268 49.26208 411 ft 44 kts 305°
2026-05-04 14:48 55.61434 49.25781 409 ft 39 kts 305°
2026-05-04 14:49 55.61580 49.25409 411 ft 35 kts 306°
2026-05-04 14:49 55.61709 49.25161 408 ft 21 kts 354°
2026-05-04 14:49 55.61823 49.25255 414 ft 0 kts 35°
2026-05-04 14:50 55.61830 49.25265 414 ft 3 kts 40°
2026-05-04 14:50 55.61850 49.25324 413 ft 8 kts 83°
2026-05-04 14:50 55.61820 49.25451 411 ft 14 kts 123°
2026-05-04 14:51 55.61752 49.25623 411 ft 20 kts 123°
2026-05-04 14:51 55.61665 49.25853 413 ft 25 kts 124°
2026-05-04 14:51 55.61558 49.26133 414 ft 30 kts 124°
2026-05-04 14:51 55.61455 49.26395 415 ft 27 kts 124°
2026-05-04 14:52 55.61343 49.26683 408 ft 28 kts 124°
2026-05-04 14:52 55.61228 49.26977 409 ft 31 kts 124°
2026-05-04 14:52 55.61109 49.27281 412 ft 28 kts 124°
2026-05-04 14:52 55.60996 49.27575 409 ft 27 kts 124°
2026-05-04 14:53 55.60887 49.27855 415 ft 28 kts 124°
2026-05-04 14:53 55.60775 49.28146 415 ft 30 kts 124°
2026-05-04 14:53 55.60659 49.28446 410 ft 28 kts 124°
2026-05-04 14:53 55.60591 49.28710 415 ft 22 kts 96°
2026-05-04 14:54 55.60580 49.28996 415 ft 23 kts 93°
2026-05-04 14:54 55.60627 49.29195 413 ft 20 kts 42°
2026-05-04 14:54 55.60743 49.29339 415 ft 20 kts 34°
2026-05-04 14:54 55.60813 49.29469 412 ft 12 kts 94°
2026-05-04 14:55 55.60760 49.29618 412 ft 17 kts 125°
2026-05-04 14:55 55.60689 49.29798 412 ft 13 kts 125°
2026-05-04 14:55 55.60685 49.29920 412 ft 9 kts 44°
2026-05-04 14:55 55.60705 49.29947 409 ft 3 kts 36°
2026-05-04 14:56 55.60717 49.29963 409 ft 0 kts 35°
2026-05-04 14:56 55.60718 49.29963 415 ft 0 kts 35°